,,,PA_Meas_PMT16A,,PR_Meas_QMR101_102,,RH_Meas_QMH101,,SR_Meas_QMS101,,TA_Meas_QMH101,,GenWind,,GenWind,
date,time,status,PA,status,PR,status,RH,status,SR,status,TA,status,DirAvg,status,SpdAvg,
2014-06-16, 00:00:04,VALID,1009.78,VALID,0,INVALID,110.543,VALID,0,VALID,24.1617,VALID,106,VALID,0,
2014-06-16, 00:01:04,VALID,1009.77,VALID,0,INVALID,110.505,VALID,0,VALID,24.2007,VALID,106,VALID,0,
2014-06-16, 00:02:04,VALID,1009.79,VALID,0,INVALID,110.482,VALID,0,VALID,24.2007,VALID,106,VALID,0,
2014-06-16, 00:03:04,VALID,1009.77,VALID,0,INVALID,110.406,VALID,0,VALID,24.2202,VALID,106,VALID,0,
2014-06-16, 00:04:04,VALID,1009.79,VALID,0,INVALID,110.375,VALID,0,VALID,24.2591,VALID,106,VALID,0,
2014-06-16, 00:05:05,VALID,1009.79,VALID,0,INVALID,110.383,VALID,0,VALID,24.2591,VALID,106,VALID,0,
2014-06-16, 00:06:04,VALID,1009.79,VALID,0,INVALID,110.398,VALID,0,VALID,24.2591,VALID,106,VALID,0,
2014-06-16, 00:07:05,VALID,1009.8,VALID,0,INVALID,110.398,VALID,0,VALID,24.2396,VALID,106,VALID,0,
2014-06-16, 00:08:05,VALID,1009.77,VALID,0,INVALID,110.375,VALID,0,VALID,24.2396,VALID,106,VALID,0,
2014-06-16, 00:09:05,VALID,1009.76,VALID,0,INVALID,110.36,VALID,0,VALID,24.2396,VALID,106,VALID,0,
2014-06-16, 00:10:05,VALID,1009.75,VALID,0,INVALID,110.352,VALID,0,VALID,24.2396,VALID,106,VALID,0,
2014-06-16, 00:11:05,VALID,1009.74,VALID,0,INVALID,110.375,VALID,0,VALID,24.2202,VALID,106,VALID,0,
2014-06-16, 00:12:05,VALID,1009.76,VALID,0,INVALID,110.352,VALID,0,VALID,24.2202,VALID,106,VALID,0,
2014-06-16, 00:13:05,VALID,1009.74,VALID,0,INVALID,110.329,VALID,0,VALID,24.2396,VALID,106,VALID,0,
2014-06-16, 00:14:05,VALID,1009.75,VALID,0,INVALID,110.299,VALID,0,VALID,24.3,VALID,106,VALID,0.205469,
2014-06-16, 00:15:05,VALID,1009.73,VALID,0,INVALID,110.2,VALID,0,VALID,24.3176,VALID,106,VALID,0.162891,
2014-06-16, 00:16:05,VALID,1009.73,VALID,0,INVALID,110.185,VALID,0,VALID,24.3566,VALID,106,VALID,0.303906,
2014-06-16, 00:17:05,VALID,1009.72,VALID,0,INVALID,110.154,VALID,0,VALID,24.3761,VALID,106,VALID,0.0828125,
2014-06-16, 00:18:05,VALID,1009.7,VALID,0,INVALID,110.177,VALID,0,VALID,24.3566,VALID,106,VALID,0,
2014-06-16, 00:19:05,VALID,1009.72,VALID,0,INVALID,110.192,VALID,0,VALID,24.3371,VALID,106,VALID,0.00429688,
2014-06-16, 00:20:05,VALID,1009.73,VALID,0,INVALID,110.192,VALID,0,VALID,24.3371,VALID,106,VALID,0,
2014-06-16, 00:21:05,VALID,1009.75,VALID,0,INVALID,110.207,VALID,0,VALID,24.3176,VALID,106,VALID,0.0648438,
2014-06-16, 00:22:05,VALID,1009.75,VALID,0,INVALID,110.2,VALID,0,VALID,24.2981,VALID,106,VALID,0.164063,
2014-06-16, 00:23:05,VALID,1009.75,VALID,0,INVALID,110.215,VALID,0,VALID,24.2786,VALID,106,VALID,0.0640625,
2014-06-16, 00:24:05,VALID,1009.77,VALID,0,INVALID,110.215,VALID,0,VALID,24.2981,VALID,106,VALID,0.149219,
2014-06-16, 00:25:05,VALID,1009.76,VALID,0,INVALID,110.23,VALID,0,VALID,24.2591,VALID,106,VALID,0,
2014-06-16, 00:26:05,VALID,1009.79,VALID,0,INVALID,110.261,VALID,0,VALID,24.2396,VALID,106,VALID,0,
2014-06-16, 00:27:05,VALID,1009.76,VALID,0,INVALID,110.268,VALID,0,VALID,24.2415,VALID,106,VALID,0,
2014-06-16, 00:28:05,VALID,1009.76,VALID,0,INVALID,110.261,VALID,0,VALID,24.2202,VALID,106,VALID,0,
2014-06-16, 00:29:05,VALID,1009.72,VALID,0,INVALID,110.314,VALID,0,VALID,24.2025,VALID,106,VALID,0,
2014-06-16, 00:30:05,VALID,1009.73,VALID,0,INVALID,110.375,VALID,0,VALID,24.1014,VALID,106,VALID,0,
2014-06-16, 00:31:05,VALID,1009.72,VALID,0,INVALID,110.39,VALID,0,VALID,24.1032,VALID,106,VALID,0,
2014-06-16, 00:32:05,VALID,1009.69,VALID,0,INVALID,110.39,VALID,0,VALID,24.0837,VALID,106,VALID,0,
2014-06-16, 00:33:05,VALID,1009.68,VALID,0,INVALID,110.421,VALID,0,VALID,24.0661,VALID,106,VALID,0,
2014-06-16, 00:34:05,VALID,1009.65,VALID,0,INVALID,110.429,VALID,0,VALID,24.0448,VALID,106,VALID,0,
2014-06-16, 00:35:05,VALID,1009.62,VALID,0,INVALID,110.436,VALID,0,VALID,24.0448,VALID,106,VALID,0,
2014-06-16, 00:36:05,VALID,1009.61,VALID,0,INVALID,110.421,VALID,0,VALID,24.0253,VALID,106,VALID,0,
2014-06-16, 00:37:05,VALID,1009.59,VALID,0,INVALID,110.413,VALID,0,VALID,24.0661,VALID,106,VALID,0,
2014-06-16, 00:38:05,VALID,1009.6,VALID,0,INVALID,110.398,VALID,0,VALID,24.0466,VALID,106,VALID,0,
2014-06-16, 00:39:05,VALID,1009.58,VALID,0,INVALID,110.39,VALID,0,VALID,24.0253,VALID,106,VALID,0,
2014-06-16, 00:40:05,VALID,1009.59,VALID,0,INVALID,110.39,VALID,0,VALID,24.0466,VALID,106,VALID,0,
2014-06-16, 00:41:05,VALID,1009.54,VALID,0,INVALID,110.421,VALID,0,VALID,24.0058,VALID,106,VALID,0,
2014-06-16, 00:42:05,VALID,1009.57,VALID,0,INVALID,110.436,VALID,0,VALID,23.9863,VALID,106,VALID,0,
2014-06-16, 00:43:05,VALID,1009.57,VALID,0,INVALID,110.421,VALID,0,VALID,24.0076,VALID,106,VALID,0,
2014-06-16, 00:44:05,VALID,1009.55,VALID,0,INVALID,110.413,VALID,0,VALID,23.9668,VALID,106,VALID,0,
2014-06-16, 00:45:05,VALID,1009.52,VALID,0,INVALID,110.421,VALID,0,VALID,23.9881,VALID,106,VALID,0,
2014-06-16, 00:46:05,VALID,1009.52,VALID,0,INVALID,110.413,VALID,0,VALID,23.9473,VALID,106,VALID,0,
2014-06-16, 00:47:05,VALID,1009.49,VALID,0,INVALID,110.406,VALID,0,VALID,23.9473,VALID,106,VALID,0,
2014-06-16, 00:48:05,VALID,1009.49,VALID,0,INVALID,110.398,VALID,0,VALID,23.9881,VALID,106,VALID,0,
2014-06-16, 00:49:05,VALID,1009.45,VALID,0,INVALID,110.383,VALID,0,VALID,23.9473,VALID,106,VALID,0,
2014-06-16, 00:50:05,VALID,1009.48,VALID,0,INVALID,110.39,VALID,0,VALID,23.9278,VALID,106,VALID,0,
2014-06-16, 00:51:05,VALID,1009.46,VALID,0,INVALID,110.398,VALID,0,VALID,23.9473,VALID,106,VALID,0,
2014-06-16, 00:52:05,VALID,1009.48,VALID,0,INVALID,110.36,VALID,0,VALID,23.9278,VALID,106,VALID,0,
2014-06-16, 00:53:05,VALID,1009.49,VALID,0,INVALID,110.345,VALID,0,VALID,23.9278,VALID,106,VALID,0,
2014-06-16, 00:54:05,VALID,1009.47,VALID,0,INVALID,110.314,VALID,0,VALID,23.9473,VALID,106,VALID,0,
2014-06-16, 00:55:05,VALID,1009.45,VALID,0,INVALID,110.284,VALID,0,VALID,23.9473,VALID,106,VALID,0,
2014-06-16, 00:56:05,VALID,1009.42,VALID,0,INVALID,110.299,VALID,0,VALID,23.9278,VALID,106,VALID,0,
2014-06-16, 00:57:05,VALID,1009.4,VALID,0,INVALID,110.314,VALID,0,VALID,23.9278,VALID,106,VALID,0,
2014-06-16, 00:58:05,VALID,1009.38,VALID,0,INVALID,110.322,VALID,0,VALID,23.9278,VALID,106,VALID,0,
2014-06-16, 00:59:05,VALID,1009.37,VALID,0,INVALID,110.291,VALID,0,VALID,23.9084,VALID,106,VALID,0,
2014-06-16, 01:00:05,VALID,1009.35,VALID,0,INVALID,110.253,VALID,0,VALID,23.9278,VALID,106,VALID,0,
2014-06-16, 01:01:05,VALID,1009.35,VALID,0,INVALID,110.246,VALID,0,VALID,23.9473,VALID,106,VALID,0,
2014-06-16, 01:02:05,VALID,1009.32,VALID,0,INVALID,110.253,VALID,0,VALID,23.9473,VALID,106,VALID,0,
2014-06-16, 01:03:05,VALID,1009.31,VALID,0,INVALID,110.291,VALID,0,VALID,23.9084,VALID,106,VALID,0,
2014-06-16, 01:04:05,VALID,1009.31,VALID,0,INVALID,110.284,VALID,0,VALID,23.8889,VALID,106,VALID,0,
2014-06-16, 01:05:05,VALID,1009.28,VALID,0,INVALID,110.352,VALID,0,VALID,23.8499,VALID,106,VALID,0,
2014-06-16, 01:06:05,VALID,1009.28,VALID,0,INVALID,110.398,VALID,0,VALID,23.8109,VALID,106,VALID,0,
2014-06-16, 01:07:05,VALID,1009.25,VALID,0,INVALID,110.413,VALID,0,VALID,23.772,VALID,106,VALID,0,
2014-06-16, 01:08:05,VALID,1009.24,VALID,0,INVALID,110.459,VALID,0,VALID,23.7525,VALID,106,VALID,0,
2014-06-16, 01:09:05,VALID,1009.22,VALID,0,INVALID,110.459,VALID,0,VALID,23.733,VALID,106,VALID,0,
2014-06-16, 01:10:05,VALID,1009.2,VALID,0,INVALID,110.49,VALID,0,VALID,23.7135,VALID,106,VALID,0,
2014-06-16, 01:11:05,VALID,1009.15,VALID,0,INVALID,110.459,VALID,0,VALID,23.694,VALID,106,VALID,0.153125,
2014-06-16, 01:12:05,VALID,1009.1,VALID,0,INVALID,110.482,VALID,0,VALID,23.6745,VALID,106,VALID,0,
2014-06-16, 01:13:05,VALID,1009.06,VALID,0,INVALID,110.482,VALID,0,VALID,23.655,VALID,106,VALID,0.0328125,
2014-06-16, 01:14:05,VALID,1009.04,VALID,0,INVALID,110.459,VALID,0,VALID,23.655,VALID,106,VALID,0.321094,
2014-06-16, 01:15:05,VALID,1008.98,VALID,0,INVALID,110.444,VALID,0,VALID,23.655,VALID,106,VALID,0.332422,
2014-06-16, 01:16:05,VALID,1008.97,VALID,0,INVALID,110.398,VALID,0,VALID,23.6745,VALID,106,VALID,0.38125,
2014-06-16, 01:17:05,VALID,1008.93,VALID,0,INVALID,110.36,VALID,0,VALID,23.694,VALID,106,VALID,0.404687,
2014-06-16, 01:18:05,VALID,1008.89,VALID,0,INVALID,110.307,VALID,0,VALID,23.733,VALID,106,VALID,0.5375,
2014-06-16, 01:19:05,VALID,1008.88,VALID,0,INVALID,110.268,VALID,0,VALID,23.7525,VALID,106,VALID,0.607813,
2014-06-16, 01:20:05,VALID,1008.86,VALID,0,INVALID,110.284,VALID,0,VALID,23.7738,VALID,106,VALID,0.316016,
2014-06-16, 01:21:05,VALID,1008.88,VALID,0,INVALID,110.215,VALID,0,VALID,23.772,VALID,106,VALID,0.432422,
2014-06-16, 01:22:05,VALID,1008.9,VALID,0,INVALID,110.2,VALID,0,VALID,23.8127,VALID,106,VALID,0.065625,
2014-06-16, 01:23:05,VALID,1008.92,VALID,0,INVALID,110.215,VALID,0,VALID,23.7914,VALID,106,VALID,0.078125,
2014-06-16, 01:24:05,VALID,1008.91,VALID,0,INVALID,110.215,VALID,0,VALID,23.7914,VALID,106,VALID,0,
2014-06-16, 01:25:05,VALID,1008.93,VALID,0,INVALID,110.223,VALID,0,VALID,23.8109,VALID,106,VALID,0.0996094,
2014-06-16, 01:26:05,VALID,1008.93,VALID,0,INVALID,110.238,VALID,0.112112,VALID,23.8304,VALID,106,VALID,0,
2014-06-16, 01:27:05,VALID,1008.9,VALID,0,INVALID,110.246,VALID,0,VALID,23.8109,VALID,106,VALID,0.0351563,
2014-06-16, 01:28:05,VALID,1008.91,VALID,0,INVALID,110.238,VALID,0.112112,VALID,23.7914,VALID,106,VALID,0,
2014-06-16, 01:29:05,VALID,1008.93,VALID,0,INVALID,110.291,VALID,0,VALID,23.772,VALID,106,VALID,0,
2014-06-16, 01:30:05,VALID,1008.95,VALID,0,INVALID,110.314,VALID,0.112112,VALID,23.772,VALID,106,VALID,0,
2014-06-16, 01:31:05,VALID,1008.91,VALID,0,INVALID,110.329,VALID,0,VALID,23.733,VALID,106,VALID,0,
2014-06-16, 01:32:05,VALID,1008.95,VALID,0,INVALID,110.375,VALID,0,VALID,23.733,VALID,106,VALID,0,
2014-06-16, 01:33:05,VALID,1008.96,VALID,0,INVALID,110.352,VALID,0,VALID,23.7135,VALID,106,VALID,0,
2014-06-16, 01:34:05,VALID,1008.94,VALID,0,INVALID,110.406,VALID,0.112112,VALID,23.7135,VALID,106,VALID,0,
2014-06-16, 01:35:05,VALID,1008.97,VALID,0,INVALID,110.375,VALID,0,VALID,23.6745,VALID,106,VALID,0,
2014-06-16, 01:36:05,VALID,1008.97,VALID,0,INVALID,110.375,VALID,0,VALID,23.6958,VALID,106,VALID,0,
2014-06-16, 01:37:05,VALID,1008.98,VALID,0,INVALID,110.39,VALID,0,VALID,23.6745,VALID,106,VALID,0,
2014-06-16, 01:38:05,VALID,1008.98,VALID,0,INVALID,110.375,VALID,0,VALID,23.6745,VALID,106,VALID,0,
2014-06-16, 01:39:05,VALID,1008.94,VALID,0,INVALID,110.406,VALID,0,VALID,23.6745,VALID,106,VALID,0,
2014-06-16, 01:40:05,VALID,1008.91,VALID,0,INVALID,110.421,VALID,0.112112,VALID,23.6338,VALID,106,VALID,0,
2014-06-16, 01:41:05,VALID,1008.88,VALID,0,INVALID,110.451,VALID,0.112112,VALID,23.6143,VALID,106,VALID,0,
2014-06-16, 01:42:05,VALID,1008.85,VALID,0,INVALID,110.482,VALID,0.224224,VALID,23.5948,VALID,106,VALID,0,
2014-06-16, 01:43:05,VALID,1008.84,VALID,0,INVALID,110.482,VALID,0.112112,VALID,23.5558,VALID,106,VALID,0,
2014-06-16, 01:44:05,VALID,1008.83,VALID,0,INVALID,110.543,VALID,0.224224,VALID,23.5169,VALID,106,VALID,0,
2014-06-16, 01:45:05,VALID,1008.85,VALID,0,INVALID,110.573,VALID,0.112112,VALID,23.4974,VALID,106,VALID,0,
2014-06-16, 01:46:05,VALID,1008.81,VALID,0,INVALID,110.558,VALID,0.112112,VALID,23.4779,VALID,106,VALID,0,
2014-06-16, 01:47:05,VALID,1008.81,VALID,0,INVALID,110.52,VALID,0.112112,VALID,23.4779,VALID,106,VALID,0,
2014-06-16, 01:48:05,VALID,1008.82,VALID,0,INVALID,110.535,VALID,0.112112,VALID,23.4584,VALID,106,VALID,0,
2014-06-16, 01:49:05,VALID,1008.83,VALID,0,INVALID,110.535,VALID,0.112112,VALID,23.4584,VALID,106,VALID,0,
2014-06-16, 01:50:05,VALID,1008.84,VALID,0,INVALID,110.566,VALID,0.112112,VALID,23.4389,VALID,106,VALID,0,
2014-06-16, 01:51:05,VALID,1008.81,VALID,0,INVALID,110.528,VALID,0.112112,VALID,23.4194,VALID,106,VALID,0,
2014-06-16, 01:52:05,VALID,1008.83,VALID,0,INVALID,110.528,VALID,0.112112,VALID,23.4194,VALID,106,VALID,0,
2014-06-16, 01:53:05,VALID,1008.81,VALID,0,INVALID,110.566,VALID,0.112112,VALID,23.4,VALID,106,VALID,0,
2014-06-16, 01:54:05,VALID,1008.84,VALID,0,INVALID,110.52,VALID,0.112112,VALID,23.4,VALID,106,VALID,0,
2014-06-16, 01:55:05,VALID,1008.83,VALID,0,INVALID,110.512,VALID,0,VALID,23.4017,VALID,106,VALID,0,
2014-06-16, 01:56:05,VALID,1008.82,VALID,0,INVALID,110.497,VALID,0,VALID,23.3823,VALID,106,VALID,0,
2014-06-16, 01:57:05,VALID,1008.83,VALID,0,INVALID,110.451,VALID,0,VALID,23.423,VALID,106,VALID,0,
2014-06-16, 01:58:05,VALID,1008.79,VALID,0,INVALID,110.413,VALID,0,VALID,23.4017,VALID,106,VALID,0,
2014-06-16, 01:59:05,VALID,1008.84,VALID,0,INVALID,110.383,VALID,0,VALID,23.4212,VALID,106,VALID,0,
2014-06-16, 02:00:05,VALID,1008.84,VALID,0,INVALID,110.429,VALID,0,VALID,23.4017,VALID,106,VALID,0,
2014-06-16, 02:01:05,VALID,1008.84,VALID,0,INVALID,110.421,VALID,0,VALID,23.4017,VALID,106,VALID,0,
2014-06-16, 02:02:05,VALID,1008.84,VALID,0,INVALID,110.39,VALID,0.112112,VALID,23.4017,VALID,106,VALID,0,
2014-06-16, 02:03:05,VALID,1008.83,VALID,0,INVALID,110.36,VALID,0,VALID,23.4017,VALID,106,VALID,0,
2014-06-16, 02:04:05,VALID,1008.79,VALID,0,INVALID,110.345,VALID,0,VALID,23.4017,VALID,106,VALID,0,
2014-06-16, 02:05:05,VALID,1008.8,VALID,0,INVALID,110.36,VALID,0,VALID,23.4035,VALID,106,VALID,0,
2014-06-16, 02:06:05,VALID,1008.78,VALID,0,INVALID,110.36,VALID,0,VALID,23.3628,VALID,106,VALID,0,
2014-06-16, 02:07:05,VALID,1008.75,VALID,0,INVALID,110.345,VALID,0,VALID,23.3628,VALID,106,VALID,0,
2014-06-16, 02:08:05,VALID,1008.75,VALID,0,INVALID,110.322,VALID,0,VALID,23.3433,VALID,106,VALID,0,
2014-06-16, 02:09:05,VALID,1008.74,VALID,0,INVALID,110.314,VALID,0,VALID,23.3238,VALID,106,VALID,0,
2014-06-16, 02:10:05,VALID,1008.71,VALID,0,INVALID,110.337,VALID,0,VALID,23.3238,VALID,106,VALID,0,
2014-06-16, 02:11:05,VALID,1008.72,VALID,0,INVALID,110.329,VALID,0,VALID,23.3043,VALID,106,VALID,0,
2014-06-16, 02:12:05,VALID,1008.71,VALID,0,INVALID,110.337,VALID,0.112112,VALID,23.2848,VALID,106,VALID,0,
2014-06-16, 02:13:05,VALID,1008.72,VALID,0,INVALID,110.36,VALID,0,VALID,23.2459,VALID,106,VALID,0,
2014-06-16, 02:14:05,VALID,1008.71,VALID,0,INVALID,110.352,VALID,0,VALID,23.2264,VALID,106,VALID,0,
2014-06-16, 02:15:05,VALID,1008.74,VALID,0,INVALID,110.413,VALID,0,VALID,23.2069,VALID,106,VALID,0,
2014-06-16, 02:16:05,VALID,1008.75,VALID,0,INVALID,110.413,VALID,0,VALID,23.1679,VALID,106,VALID,0,
2014-06-16, 02:17:05,VALID,1008.75,VALID,0,INVALID,110.436,VALID,0,VALID,23.1485,VALID,106,VALID,0,
2014-06-16, 02:18:05,VALID,1008.76,VALID,0,INVALID,110.398,VALID,0,VALID,23.1485,VALID,106,VALID,0,
2014-06-16, 02:19:05,VALID,1008.79,VALID,0,INVALID,110.352,VALID,0,VALID,23.1679,VALID,106,VALID,0,
2014-06-16, 02:20:05,VALID,1008.77,VALID,0,INVALID,110.337,VALID,0,VALID,23.1679,VALID,106,VALID,0,
2014-06-16, 02:21:05,VALID,1008.78,VALID,0,INVALID,110.291,VALID,0,VALID,23.1679,VALID,106,VALID,0,
2014-06-16, 02:22:05,VALID,1008.75,VALID,0,INVALID,110.291,VALID,0.112112,VALID,23.1485,VALID,106,VALID,0,
2014-06-16, 02:23:05,VALID,1008.75,VALID,0,INVALID,110.291,VALID,0,VALID,23.1485,VALID,106,VALID,0,
2014-06-16, 02:24:05,VALID,1008.76,VALID,0,INVALID,110.337,VALID,0,VALID,23.129,VALID,106,VALID,0,
2014-06-16, 02:25:05,VALID,1008.75,VALID,0,INVALID,110.337,VALID,0,VALID,23.1112,VALID,106,VALID,0,
2014-06-16, 02:26:05,VALID,1008.72,VALID,0,INVALID,110.352,VALID,0,VALID,23.1112,VALID,106,VALID,0,
2014-06-16, 02:27:05,VALID,1008.74,VALID,0,INVALID,110.345,VALID,0,VALID,23.0918,VALID,106,VALID,0,
2014-06-16, 02:28:05,VALID,1008.73,VALID,0,INVALID,110.36,VALID,0,VALID,23.0511,VALID,106,VALID,0,
2014-06-16, 02:29:05,VALID,1008.74,VALID,0,INVALID,110.291,VALID,0,VALID,23.0511,VALID,106,VALID,0,
2014-06-16, 02:30:05,VALID,1008.75,VALID,0,INVALID,110.284,VALID,0,VALID,23.0511,VALID,106,VALID,0,
2014-06-16, 02:31:05,VALID,1008.76,VALID,0,INVALID,110.261,VALID,0,VALID,23.0316,VALID,106,VALID,0,
2014-06-16, 02:32:05,VALID,1008.74,VALID,0,INVALID,110.291,VALID,0,VALID,23.0316,VALID,106,VALID,0,
2014-06-16, 02:33:05,VALID,1008.74,VALID,0,INVALID,110.23,VALID,0,VALID,23.0528,VALID,106,VALID,0,
2014-06-16, 02:34:05,VALID,1008.74,VALID,0,INVALID,110.253,VALID,0,VALID,23.0316,VALID,106,VALID,0,
2014-06-16, 02:35:05,VALID,1008.75,VALID,0,INVALID,110.238,VALID,0,VALID,23.0121,VALID,106,VALID,0,
2014-06-16, 02:36:05,VALID,1008.74,VALID,0,INVALID,110.238,VALID,0,VALID,23.0138,VALID,106,VALID,0,
2014-06-16, 02:37:05,VALID,1008.72,VALID,0,INVALID,110.261,VALID,0,VALID,22.9943,VALID,106,VALID,0,
2014-06-16, 02:38:05,VALID,1008.72,VALID,0,INVALID,110.23,VALID,0,VALID,22.9731,VALID,106,VALID,0,
2014-06-16, 02:39:05,VALID,1008.73,VALID,0,INVALID,110.23,VALID,0,VALID,22.9731,VALID,106,VALID,0,
2014-06-16, 02:40:05,VALID,1008.72,VALID,0,INVALID,110.223,VALID,0,VALID,22.9749,VALID,106,VALID,0,
2014-06-16, 02:41:05,VALID,1008.74,VALID,0,INVALID,110.238,VALID,0,VALID,22.9536,VALID,106,VALID,0,
2014-06-16, 02:42:05,VALID,1008.78,VALID,0,INVALID,110.268,VALID,0,VALID,22.9342,VALID,106,VALID,0,
2014-06-16, 02:43:05,VALID,1008.82,VALID,0,INVALID,110.246,VALID,0,VALID,22.9147,VALID,106,VALID,0,
2014-06-16, 02:44:05,VALID,1008.82,VALID,0,INVALID,110.207,VALID,0,VALID,22.9342,VALID,106,VALID,0,
2014-06-16, 02:45:05,VALID,1008.85,VALID,0,INVALID,110.169,VALID,0,VALID,22.9359,VALID,106,VALID,0,
2014-06-16, 02:46:05,VALID,1008.85,VALID,0,INVALID,110.154,VALID,0,VALID,22.9359,VALID,106,VALID,0,
2014-06-16, 02:47:05,VALID,1008.87,VALID,0,INVALID,110.154,VALID,0,VALID,22.9359,VALID,106,VALID,0,
2014-06-16, 02:48:05,VALID,1008.89,VALID,0,INVALID,110.154,VALID,0,VALID,22.9147,VALID,106,VALID,0,
2014-06-16, 02:49:04,VALID,1008.93,VALID,0,INVALID,110.139,VALID,0,VALID,22.9164,VALID,106,VALID,0,
2014-06-16, 02:50:04,VALID,1008.91,VALID,0,INVALID,110.162,VALID,0,VALID,22.8969,VALID,106,VALID,0,
2014-06-16, 02:51:04,VALID,1008.93,VALID,0,INVALID,110.124,VALID,0,VALID,22.8969,VALID,106,VALID,0,
2014-06-16, 02:52:04,VALID,1008.94,VALID,0,INVALID,110.078,VALID,0,VALID,22.8952,VALID,106,VALID,0,
2014-06-16, 02:53:04,VALID,1008.93,VALID,0,INVALID,110.04,VALID,0,VALID,22.9342,VALID,106,VALID,0,
2014-06-16, 02:54:04,VALID,1008.95,VALID,0,INVALID,110.04,VALID,0,VALID,22.9536,VALID,106,VALID,0,
2014-06-16, 02:55:04,VALID,1008.98,VALID,0,INVALID,110.001,VALID,0,VALID,22.9943,VALID,106,VALID,0,
2014-06-16, 02:56:04,VALID,1008.94,VALID,0,INVALID,109.948,VALID,0,VALID,22.9926,VALID,106,VALID,0,
2014-06-16, 02:57:04,VALID,1008.95,VALID,0,INVALID,109.887,VALID,0,VALID,23.0528,VALID,106,VALID,0,
2014-06-16, 02:58:04,VALID,1008.92,VALID,0,INVALID,109.902,VALID,0,VALID,23.0316,VALID,106,VALID,0,
2014-06-16, 02:59:04,VALID,1008.94,VALID,0,INVALID,109.918,VALID,0,VALID,23.0316,VALID,106,VALID,0,
2014-06-16, 03:00:04,VALID,1008.96,VALID,0,INVALID,109.857,VALID,0,VALID,23.0316,VALID,106,VALID,0,
2014-06-16, 03:01:04,VALID,1008.98,VALID,0,INVALID,109.887,VALID,0,VALID,23.0121,VALID,106,VALID,0,
2014-06-16, 03:02:04,VALID,1008.97,VALID,0,INVALID,109.879,VALID,0,VALID,23.0333,VALID,106,VALID,0,
2014-06-16, 03:03:04,VALID,1008.97,VALID,0,INVALID,109.902,VALID,0,VALID,22.9926,VALID,106,VALID,0,
2014-06-16, 03:04:04,VALID,1008.96,VALID,0,INVALID,109.857,VALID,0,VALID,23.0138,VALID,106,VALID,0,
2014-06-16, 03:05:04,VALID,1008.95,VALID,0,INVALID,109.879,VALID,0,VALID,22.9926,VALID,106,VALID,0,
2014-06-16, 03:06:04,VALID,1008.95,VALID,0,INVALID,109.841,VALID,0,VALID,22.9926,VALID,106,VALID,0,
2014-06-16, 03:07:04,VALID,1008.96,VALID,0,INVALID,109.818,VALID,0,VALID,22.9926,VALID,106,VALID,0,
2014-06-16, 03:08:04,VALID,1008.94,VALID,0,INVALID,109.826,VALID,0,VALID,23.0138,VALID,106,VALID,0,
2014-06-16, 03:09:04,VALID,1008.94,VALID,0,INVALID,109.826,VALID,0,VALID,22.9926,VALID,106,VALID,0,
2014-06-16, 03:10:04,VALID,1008.91,VALID,0,INVALID,109.818,VALID,0,VALID,22.9926,VALID,106,VALID,0,
2014-06-16, 03:11:04,VALID,1008.92,VALID,0,INVALID,109.796,VALID,0.112112,VALID,22.9926,VALID,106,VALID,0,
2014-06-16, 03:12:04,VALID,1008.89,VALID,0,INVALID,109.803,VALID,0,VALID,22.9731,VALID,106,VALID,0,
2014-06-16, 03:13:04,VALID,1008.89,VALID,0,INVALID,109.796,VALID,0,VALID,22.9731,VALID,106,VALID,0,
2014-06-16, 03:14:04,VALID,1008.87,VALID,0,INVALID,109.841,VALID,0,VALID,22.9554,VALID,106,VALID,0,
2014-06-16, 03:15:04,VALID,1008.85,VALID,0,INVALID,109.841,VALID,0,VALID,22.9147,VALID,106,VALID,0,
2014-06-16, 03:16:04,VALID,1008.87,VALID,0,INVALID,109.872,VALID,0,VALID,22.8952,VALID,106,VALID,0,
2014-06-16, 03:17:04,VALID,1008.84,VALID,0,INVALID,109.849,VALID,0,VALID,22.8757,VALID,106,VALID,0,
2014-06-16, 03:18:04,VALID,1008.84,VALID,0,INVALID,109.857,VALID,0,VALID,22.8757,VALID,106,VALID,0,
2014-06-16, 03:19:04,VALID,1008.84,VALID,0,INVALID,109.834,VALID,0.112112,VALID,22.8562,VALID,106,VALID,0,
2014-06-16, 03:20:04,VALID,1008.81,VALID,0,INVALID,109.841,VALID,0,VALID,22.8368,VALID,106,VALID,0,
2014-06-16, 03:21:04,VALID,1008.84,VALID,0,INVALID,109.834,VALID,0,VALID,22.858,VALID,106,VALID,0,
2014-06-16, 03:22:04,VALID,1008.8,VALID,0,INVALID,109.841,VALID,0,VALID,22.8173,VALID,106,VALID,0,
2014-06-16, 03:23:04,VALID,1008.81,VALID,0,INVALID,109.796,VALID,0,VALID,22.8385,VALID,106,VALID,0,
2014-06-16, 03:24:04,VALID,1008.82,VALID,0,INVALID,109.757,VALID,0,VALID,22.8368,VALID,106,VALID,0,
2014-06-16, 03:25:04,VALID,1008.83,VALID,0,INVALID,109.719,VALID,0,VALID,22.8562,VALID,106,VALID,0,
2014-06-16, 03:26:04,VALID,1008.86,VALID,0,INVALID,109.742,VALID,0,VALID,22.8562,VALID,106,VALID,0,
2014-06-16, 03:27:04,VALID,1008.89,VALID,0,INVALID,109.75,VALID,0,VALID,22.8562,VALID,106,VALID,0,
2014-06-16, 03:28:04,VALID,1008.89,VALID,0,INVALID,109.735,VALID,0,VALID,22.8368,VALID,106,VALID,0,
2014-06-16, 03:29:04,VALID,1008.86,VALID,0,INVALID,109.765,VALID,0,VALID,22.858,VALID,106,VALID,0,
2014-06-16, 03:30:04,VALID,1008.89,VALID,0,INVALID,109.712,VALID,0,VALID,22.8562,VALID,106,VALID,0,
2014-06-16, 03:31:04,VALID,1008.89,VALID,0,INVALID,109.696,VALID,0,VALID,22.8562,VALID,106,VALID,0,
2014-06-16, 03:32:04,VALID,1008.86,VALID,0,INVALID,109.681,VALID,0,VALID,22.8775,VALID,106,VALID,0,
2014-06-16, 03:33:04,VALID,1008.87,VALID,0,INVALID,109.674,VALID,0,VALID,22.8562,VALID,106,VALID,0,
2014-06-16, 03:34:04,VALID,1008.87,VALID,0,INVALID,109.689,VALID,0.112112,VALID,22.8562,VALID,106,VALID,0,
2014-06-16, 03:35:04,VALID,1008.86,VALID,0,INVALID,109.712,VALID,0,VALID,22.8368,VALID,106,VALID,0,
2014-06-16, 03:36:04,VALID,1008.88,VALID,0,INVALID,109.719,VALID,0,VALID,22.8368,VALID,106,VALID,0,
2014-06-16, 03:37:04,VALID,1008.89,VALID,0,INVALID,109.75,VALID,0.112112,VALID,22.8173,VALID,106,VALID,0,
2014-06-16, 03:38:04,VALID,1008.89,VALID,0,INVALID,109.735,VALID,0.112112,VALID,22.7766,VALID,106,VALID,0,
2014-06-16, 03:39:04,VALID,1008.87,VALID,0,INVALID,109.727,VALID,0,VALID,22.7588,VALID,106,VALID,0,
2014-06-16, 03:40:04,VALID,1008.85,VALID,0,INVALID,109.75,VALID,0,VALID,22.7588,VALID,106,VALID,0,
2014-06-16, 03:41:04,VALID,1008.86,VALID,0,INVALID,109.765,VALID,0,VALID,22.7199,VALID,106,VALID,0,
2014-06-16, 03:42:04,VALID,1008.87,VALID,0,INVALID,109.757,VALID,0,VALID,22.7004,VALID,106,VALID,0,
2014-06-16, 03:43:04,VALID,1008.87,VALID,0,INVALID,109.765,VALID,0,VALID,22.7004,VALID,106,VALID,0,
2014-06-16, 03:44:04,VALID,1008.87,VALID,0,INVALID,109.696,VALID,0,VALID,22.7199,VALID,106,VALID,0,
2014-06-16, 03:45:04,VALID,1008.88,VALID,0,INVALID,109.62,VALID,0.112112,VALID,22.7588,VALID,106,VALID,0,
2014-06-16, 03:46:04,VALID,1008.86,VALID,0,INVALID,109.605,VALID,0,VALID,22.8173,VALID,106,VALID,0,
2014-06-16, 03:47:04,VALID,1008.85,VALID,0,INVALID,109.544,VALID,0,VALID,22.8368,VALID,106,VALID,0,
2014-06-16, 03:48:04,VALID,1008.85,VALID,0,INVALID,109.567,VALID,0,VALID,22.8368,VALID,106,VALID,0,
2014-06-16, 03:49:04,VALID,1008.88,VALID,0,INVALID,109.613,VALID,0,VALID,22.8173,VALID,106,VALID,0,
2014-06-16, 03:50:04,VALID,1008.92,VALID,0,INVALID,109.651,VALID,0,VALID,22.7978,VALID,106,VALID,0,
2014-06-16, 03:51:04,VALID,1008.92,VALID,0,INVALID,109.643,VALID,0,VALID,22.7588,VALID,106,VALID,0,